This is the latest recevied weather packets stored in our database for station/object WS4FSC-7. If no packets are shown the sender has not sent any weather packets the latest 10 day(s).
| Time | Temp. | Humidity | Pressure | Rain* | Wind** | Luminosity | Snow |
|---|---|---|---|---|---|---|---|
| 1788624531 | 31.11° C | 73% | 1013 hPa | - | - | 186 W/m² | - |
| 1788624351 | 31.11° C | 73% | 1013 hPa | - | - | 199 W/m² | - |
| 1788624171 | 31.11° C | 72% | 1013 hPa | - | - | 158 W/m² | - |
| 1788623812 | 30.56° C | 74% | 1013 hPa | - | - | 139 W/m² | - |
| 1788623630 | 31.11° C | 78% | 1014 hPa | - | - | 124 W/m² | - |
| 1788623450 | 31.11° C | 76% | 1013 hPa | - | - | 104 W/m² | - |
| 1788623091 | 31.11° C | 75% | 1014 hPa | - | - | 126 W/m² | - |
| 1788622912 | 31.11° C | 73% | 1014 hPa | - | - | 128 W/m² | - |
| 1788622732 | 31.67° C | 74% | 1014 hPa | - | - | 123 W/m² | - |
| 1788622191 | 32.22° C | 71% | 1014 hPa | - | - | 113 W/m² | - |
| 1788621832 | 32.22° C | 70% | 1014 hPa | - | - | 193 W/m² | - |
| 1788621651 | 32.78° C | 69% | 1014 hPa | - | - | 545 W/m² | - |
| 1788621291 | 32.78° C | 68% | 1014 hPa | - | - | 955 W/m² | - |
| 1788620931 | 32.78° C | 70% | 1014 hPa | - | - | 844 W/m² | - |
| 1788620752 | 32.22° C | 70% | 1014 hPa | - | - | 838 W/m² | - |
| 1788620571 | 32.22° C | 71% | 1014 hPa | - | - | 836 W/m² | - |
| 1788619851 | 32.22° C | 72% | 1014 hPa | - | - | 898 W/m² | - |
| 1788619491 | 32.22° C | 71% | 1014 hPa | - | - | 412 W/m² | - |
| 1788619311 | 32.22° C | 70% | 1014 hPa | - | - | 788 W/m² | - |
| 1788618591 | 32.22° C | 71% | 1014 hPa | - | - | 143 W/m² | - |
| 1788618412 | 32.22° C | 70% | 1013 hPa | - | - | 108 W/m² | - |
| 1788618231 | 32.22° C | 71% | 1014 hPa | - | - | 580 W/m² | - |
| 1788618051 | 32.22° C | 71% | 1013 hPa | - | - | 569 W/m² | - |
| 1788617331 | 31.67° C | 72% | 1013 hPa | - | - | 536 W/m² | - |
| 1788616432 | 31.11° C | 76% | 1014 hPa | - | - | 530 W/m² | - |
* Rain since midnight (hover to see other rain measurements)
** Current wind speed in m/s (hover to see current wind gust speed)